Вернуться в каталог

STARLINK-5245

АктивенСвязьVLEO
NORAD 54168·PAYLOAD·🇺🇸 United States

Запущен Oct 28, 2022 с Vandenberg Space Force Base

Loading…

Ближайшие Пролёты (ближайшие 24 часа)

TLE

СвежийSource: CelesTrak SupGP

Эпоха: Sep 15, 2026, 02:25 UTC

1 54168C 22141M   26258.10118056 -.00024129  00000+0 -71281-3 0  2588
2 54168  53.1572 219.1331 0001123  90.1581 234.5354 15.34407345    13

Отслеживайте STARLINK-5245 в реальном времени с AllMySat

Download on the App Store